Regional Weather Roundup
Issued by NWS

Home | Current Version | Previous Version | Graphics & Text | Print | Product List | Glossary On
Versions: 1 2 3 4 5 6 7 8 9 10 11 12 13 14 15 16 17 18 19 20 21 22 23 24 25 26 27 28 29 30 31 32 33 34 35 36 37 38 39 40 41 42 43 44 45 46 47 48 49 50
000
ASUS43 KMPX 260610
RWRMN
WEATHER ROUNDUP FOR MINNESOTA
NATIONAL WEATHER SERVICE TWIN CITIES/CHANHASSEN MN
100 AM CDT WED JUL 26 2017


NOTE: "FAIR" INDICATES FEW OR NO CLOUDS BELOW 12,000 FEET WITH NO
SIGNIFICANT WEATHER AND/OR OBSTRUCTIONS TO VISIBILITY. N/A MEANS
CURRENT SKY AND/OR WEATHER CONDITIONS ARE NOT AVAILABLE.

MNZ060>063-068>070-260700-
   Twin Cities Metro

CITY           SKY/WX    TMP DP  RH WIND       PRES   REMARKS
TWIN CITIES    CLOUDY    77  73  87 CALM      29.99R
6HR MIN TEMP:  76; 6HR MAX TEMP:  81; 6HR PCP:  0.22;

ST PAUL        CLOUDY    75  75 100 S8        29.98S
CRYSTAL        LGT RAIN  75  70  84 CALM      29.96S
BLAINE         LGT RAIN  75  72  88 CALM      29.97F
LAKEVILLE      CLOUDY    75  75 100 CALM      29.98S
SOUTH ST PAUL  CLOUDY    75  74  94 S3        29.99R
LAKE ELMO      CLOUDY    73  72  94 CALM      29.98F
$$
MNZ001>005-007-008-013>017-022>024-027-028-260700-
   Northwest Minnesota

CITY           SKY/WX    TMP DP  RH WIND       PRES   REMARKS
BEMIDJI        PTCLDY    65  62  87 W7        30.00S
HALLOCK        CLOUDY    64  61  88 W6        29.96R
ROSEAU         MOCLDY    68  59  73 W7        29.96R
WARROAD        CLOUDY    64  59  82 W8        29.96R
THIEF RVR FALL MOCLDY    61  57  87 SW5       30.00S
CROOKSTON      CLOUDY    63  57  82 CALM      30.00F
FOSSTON        MOCLDY    59  54  82 CALM      30.02S
DETROIT LAKES  CLEAR     68  61  77 N13       30.01F
MOORHEAD       CLEAR     64  61  88 N12       29.99F
PARK RAPIDS    CLEAR     67  65  93 NW6       29.98F
MAHNOMEN       FAIR      62  58  87 NW3       30.02S
$$
MNZ006-009>011-018-025>026-260700-
   North Central Minnesota

CITY           SKY/WX    TMP DP  RH WIND       PRES   REMARKS
BAUDETTE       CLOUDY    63  58  83 W6        29.95R
FLAG ISLAND    MOCLDY    66  57  72 W9        29.91R
INTL FALLS     MOCLDY    63  58  83 W7        29.93R
6HR MIN TEMP:  62; 6HR MAX TEMP:  73; 6HR PCP:  0.04;

WASKISH        PTCLDY    70  61  73 W9        29.98R
BIG FORK       MOCLDY    66  64  94 CALM      29.98S FOG
LONGVILLE      CLEAR     70  66  88 W5        29.98F
GRAND RAPIDS   CLEAR     70  68  93 NW8       29.99R
CRANE LAKE     CLOUDY    66  61  82 CALM      29.96R
ORR            CLOUDY    66  63  88 CALM      29.94R
COOK             N/A     68  66  94 W5        29.96R
WALKER         FAIR      67  65  94 NW8       29.98F
$$
MNZ012-019>021-037-260700-
   Northeast Minnesota

CITY           SKY/WX    TMP DP  RH WIND       PRES   REMARKS
DULUTH         CLOUDY    71  70  96 W13       29.96F
6HR MIN TEMP:  67; 6HR MAX TEMP:  71; 6HR PCP: TRACE;

ELY            MOCLDY    70  66  88 W8        29.94R
HIBBING        MOCLDY    67  67 100 W3        29.96R
EVELETH        MOCLDY    68  65  90 W8        29.98R
DULUTH HARBOR  CLOUDY    70  66  88 W14       29.94R
TWO HARBORS    CLOUDY    73  68  83 W6        29.92F
SILVER BAY     CLOUDY    68  66  94 CALM      29.93R
GRAND MARAIS     N/A     60  60 100 CALM      29.90R
G MARAIS ARPRT CLOUDY    64  61  88 SW5       29.94S FOG
$$
MNZ029>031-032-039>041-046>048-054>057-064-260700-
   West Central Minnesota

CITY           SKY/WX    TMP DP  RH WIND       PRES   REMARKS
FERGUS FALLS   CLOUDY    70  70 100 N6        29.98S
WHEATON        CLOUDY    72  68  88 CALM      30.00F
MORRIS         CLOUDY    72  72 100 NW5       29.97S
ALEXANDRIA     CLOUDY    71  69  93 NW3       30.01R
ELBOW LAKE     FAIR      69  69 100 SW5       30.00R
WADENA         CLOUDY    70  70 100 W3        29.99S
GLENWOOD       CLOUDY    72  70  94 CALM      30.00R
APPLETON       CLOUDY    75  66  73 NW5       29.95S
BENSON         CLOUDY    72  68  88 CALM      29.98S
ORTONVILLE     LGT RAIN  73  72  94 MISG      29.99R
MADISON        CLOUDY    75  70  83 SW5       29.99R
WILLMAR        FAIR      73  70  88 CALM      29.99S
$$
MNZ033>034-036-042>043-049>051-058-059-260700-
   Central Minnesota

CITY           SKY/WX    TMP DP  RH WIND       PRES   REMARKS
ST CLOUD       CLOUDY    71  70  96 W3        29.96S
6HR MIN TEMP:  71; 6HR MAX TEMP:  80; 6HR PCP:  0.01;

SAUK CENTRE    FAIR      70  69  97 CALM      29.98S
PAYNESVILLE    CLOUDY    70  68  93 CALM      29.98F
AITKIN         CLOUDY    70  68  94 CALM      29.95S
PINE RIVER     CLOUDY    70  70 100 NW3       30.00F
BRAINERD       CLOUDY    72  70  93 W6        29.97S
STAPLES        CLOUDY    70  68  94 W5        29.98S
LONG PRAIRIE   FAIR      70  68  94 CALM      29.98S
LITTLE FALLS   CLOUDY    64  63  94 CALM      29.97F
LITCHFIELD     LGT RAIN  73  72  94 CALM      29.98S
BUFFALO        CLOUDY    73  68  86 CALM      29.99R
MAPLE LAKE     CLOUDY    75  70  86 CALM      29.98S
HUTCHINSON     LGT RAIN  72  71  98 CALM      29.99S
$$
MNZ037-044-045-052-053-260700-
   East Central Minnesota

CITY           SKY/WX    TMP DP  RH WIND       PRES   REMARKS
PRINCETON      CLOUDY    72  70  94 CALM      29.95F
MORA           CLOUDY    64  63  94 CALM      29.97F
CAMBRIDGE      CLOUDY    75  66  73 S3        29.94F
RUSH CITY      HVY RAIN  72  70  93 CALM      29.96F
MOOSE LAKE     CLOUDY    66  64  94 CALM      29.93F
HINCKLEY       FAIR      68  68 100 SE5       29.96F
CLOQUET        CLOUDY    72  68  88 N3        29.94F
MCGREGOR       CLOUDY    72  68  88 NW8       29.95F
$$
MNZ071>073-080-081-089-090-097-098-260700-
   Southwest Minnesota

CITY           SKY/WX    TMP DP  RH WIND       PRES   REMARKS
MONTEVIDEO     CLOUDY    72  66  83 N5        29.98R
GRANITE FALLS  LGT RAIN  73  70  91 CALM      29.99R
CANBY          LGT RAIN  73  69  88 CALM      30.01R
MARSHALL       LGT RAIN  73  70  90 SW9       29.98R
REDWOOD FALLS  LGT RAIN  73  70  90 NE3       29.96S
OLIVIA         LGT RAIN  72  70  94 CALM      29.96F
PIPESTONE      LGT RAIN  70  66  88 N8        30.06F
WINDOM         LGT RAIN  75  73  94 CALM      29.99S
WORTHINGTON    CLOUDY    74  73  97 CALM      30.01F
JACKSON        CLOUDY    77  72  83 CALM      29.99F
TRACY          LGT RAIN  75  73  94 SW6       29.99R
SLAYTON        LGT RAIN  72  70  95 S3        30.03R
$$
MNZ065>067-074>077-082>085-091>093-260700-
   South Central Minnesota

CITY           SKY/WX    TMP DP  RH WIND       PRES   REMARKS
MANKATO        LGT RAIN  77  74  90 S7        29.98F
NEW ULM        LGT RAIN  75  73  94 S6        29.97F
ST JAMES         N/A    N/A N/A N/A CALM      29.99F
FAIRMONT       CLOUDY    77  73  87 S7        29.99F
GLENCOE        LGT RAIN  74  74 100 CALM      29.97R
FARIBAULT      LGT RAIN  75  72  88 CALM      30.00F
OWATONNA       CLOUDY    75  70  83 S7        30.00F
WASECA         CLOUDY    73  70  88 CALM      30.01F
ALBERT LEA     CLOUDY    77  70  78 S8        30.01F
$$
MNZ078>079-086>088-094>096-260700-
   Southeast Minnesota

CITY           SKY/WX    TMP DP  RH WIND       PRES   REMARKS
ROCHESTER      CLOUDY    73  69  87 S14       30.03S
6HR MIN TEMP:  73; 6HR MAX TEMP:  77; 6HR PCP: TRACE;

RED WING       CLOUDY    79  66  65 W8        29.98R
STANTON        CLOUDY    74  71  88 S3        29.98S
DODGE CENTER   CLOUDY    73  68  83 S8        30.03S
WINONA         CLOUDY    73  66  78 S3        30.02R
AUSTIN         CLOUDY    73  68  83 S6        30.03S
PRESTON        CLOUDY    72  67  82 S10G16    30.05R
$$
ABBREVIATIONS USED IN REMARKS
   TC - TEMPERATURES IN CELSIUS
  WCI - WIND CHILL INDEX
   HX - HEAT INDEX
  VSB - VISIBILITY
$$




USA.gov is the U.S. government's official web portal to all federal, state and local government web resources and services.